Tracking 34408 objects as of 14-Jun-2026
HD Live streaming from Space Station
objects crossing your sky now

DELTA 1 DEB

Track DELTA 1 DEB now!
10-day predictions


NORAD ID: 7085
Int'l Code: 1973-086CD
Perigee: 1,352.5 km
Apogee: 1,505.4 km
Inclination: 102.2 °
Period: 114.3 minutes
Semi major axis: 7799 km
RCS: 0.072 m2 (small)
Launch date: November 6, 1973
Source: United States (US)
Launch site: AIR FORCE WESTERN TEST RANGE (AFWTR)

Note: This is SATELLITE DEBRIS
Your satellite tracking list
Your tracking list is empty




NASA's NSSDC Master Catalog

Two Line Element Set (TLE):
1  7085U 73086CD  26165.00155359  .00000067  00000-0  64911-3 0  9999
2  7085 102.1701 324.1255 0098028 216.9822 270.2047 12.60282284415730
Source of the keplerian elements: AFSPC